Starlink 35717

operational
NORAD ID: 66839 Int'l Des: 2025-280 Owner: SPXS Country: US Constellation: starlink
LEOCIRCULAR

About Starlink 35717

Description loading...

Live Position

Loading 3D Globe...

Upcoming Passes

Altitude History

Altitude vs Time

uPlot chart will show altitude changes over time

Two-Line Element Set

1 66839U 25280U 26041.30127980 -.00221283 00000-0 -19291-1 0 9995
2 66839 70.0017 43.4988 0000322 231.1821 128.9309 14.98012183 11977
Epoch: Feb 10, 2026 • Age: 8 hours

Current Status

Altitude 598.3 km
Velocity 7.56 km/s
Sub-Earth Point -67.71°S, 23.36°W
Launch Date Dec 2, 2025
Age 0.1 years
Type internet

Technical Details

Classification Payload
Mass 575.00 kg
Dry Mass 530.00 kg
Total Mass 575.00 kg
Length 0.30 m
Diameter 4.10 m
Span 29.00 m
Shape Box + pan
Manufacturer SPXS
Bus Type Starlink V2MO
Phase Status In Orbit
Owner/State SPXS/US

Large Constellations

Loading constellations...